sat.trackr.live / text

‹ back to catalog

STARLINK-35785

NORAD 67176 · 2025-303P

PAYLOAD ACTIVE UNKNOWN

§ Identity

Operator
Country
US
Launch date
2025-12-17
Launch site
AFETR
Launch vehicle
Mass (kg)
RCS (m²)

Purposes: comms

External: N2YO · Heavens-Above · Gunter

§ Orbital elements

Epoch: 2026-09-19T03:49:49.553184Z

Period
94.27 min
Inclination
43.0013°
Eccentricity
0.0001056
Mean motion
15.27587403 rev/d
Perigee alt
482.3 km
Apogee alt
483.8 km
Semi-major
6,861.2 km
B*
3.2258e-4
RAAN
298.1177°
Arg perigee
258.7187°
Mean anomaly
101.3546°
Rev number
4,232

§ Raw data

STARLINK-357851 67176U 25303P   26262.15960131  .00008627  00000+0  32258-3 0  99992 67176  43.0013 298.1177 0001056 258.7187 101.3546 15.27587403 42328

JSON: /api/v1/satellites/67176 · /tle

For live sub-satellite position, see the globe view (requires WebGL).

§ Visibility from observer

Set your observer location to see the next 7 days of passes ≥ 10°. The values pass through the URL so the page stays shareable.

No JS? Fill the form by hand. The geolocation button needs JavaScript.